Location: Austin
(30.3000°N, 97.7500°W)
Time: 02:33:11
(UTC-05:00)

Centaur D AC-25 - Pass Details

Date: 15 May 2024
Orbit: 740 x 36339 km, 27.7° (Epoch: 30 May)

Event Time Altitude Azimuth Distance (km) Brightness Sun altitude
Rises 20:57:38 0° 209° (SSW) 3,158 5.7 -8.5°
Reaches altitude 10° 21:00:09 10° 187° (S) 2,303 4.8 -8.9°
Maximum altitude 21:03:29 19° 137° (SE) 2,163 4.3 -9.6°
Drops below altitude 10° 21:09:12 10° 92° (E) 4,158 5.7 -10.6°
Sets 21:16:55 0° 78° (ENE) 7,456 7.1 -12.1°
